Wetterdaten: Woche 23.02.09 - 01.03.09 (KW9)
Datum Zeit Temperatur Luftfeuchte Luftdruck Niederschlag Windrichtung Wind
23.02.2009 00:00 1,3 C 96 % 1020,7 hPa 0,0 l/m W-SW 15,8 km/h (3 Bft)
23.02.2009 01:00 1,3 C 96 % 1020,3 hPa 0,0 l/m W-SW 18,5 km/h (3 Bft)
23.02.2009 02:00 1,3 C 96 % 1019,9 hPa 0,0 l/m W 18,9 km/h (3 Bft)
23.02.2009 03:00 1,4 C 96 % 1019,7 hPa 0,0 l/m W-SW 19,2 km/h (3 Bft)
23.02.2009 04:00 1,4 C 96 % 1019,5 hPa 0,0 l/m W-SW 18,0 km/h (3 Bft)
23.02.2009 05:00 1,6 C 96 % 1019,1 hPa 0,0 l/m W-SW 13,8 km/h (3 Bft)
23.02.2009 06:00 1,7 C 95 % 1019,0 hPa 0,2 l/m W 12,9 km/h (3 Bft)
23.02.2009 07:00 1,5 C 95 % 1019,0 hPa 0,0 l/m W 9,2 km/h (2 Bft)
23.02.2009 08:00 1,6 C 95 % 1019,1 hPa 0,0 l/m W 8,7 km/h (2 Bft)
23.02.2009 09:00 2,1 C 93 % 1018,8 hPa 0,0 l/m W 10,7 km/h (2 Bft)
23.02.2009 10:00 2,8 C 87 % 1018,8 hPa 0,0 l/m W-NW 12,8 km/h (3 Bft)
23.02.2009 11:00 2,9 C 88 % 1019,0 hPa 0,0 l/m W-NW 14,1 km/h (3 Bft)
23.02.2009 12:00 2,6 C 89 % 1019,0 hPa 0,0 l/m W 18,2 km/h (3 Bft)
23.02.2009 13:00 2,3 C 91 % 1018,7 hPa 0,2 l/m W 17,0 km/h (3 Bft)
23.02.2009 14:00 2,4 C 92 % 1018,1 hPa 0,0 l/m W-SW 15,6 km/h (3 Bft)
23.02.2009 15:00 2,5 C 90 % 1017,8 hPa 0,0 l/m W 19,0 km/h (3 Bft)
23.02.2009 16:00 2,4 C 91 % 1017,5 hPa 0,0 l/m W-SW 18,9 km/h (3 Bft)
23.02.2009 17:00 2,3 C 91 % 1017,4 hPa 0,0 l/m W-SW 15,3 km/h (3 Bft)
23.02.2009 18:00 1,8 C 94 % 1017,8 hPa 0,4 l/m W-SW 15,3 km/h (3 Bft)
23.02.2009 19:00 1,4 C 95 % 1017,6 hPa 0,0 l/m W-SW 13,0 km/h (3 Bft)
23.02.2009 20:00 1,6 C 95 % 1017,5 hPa 0,0 l/m W 16,0 km/h (3 Bft)
23.02.2009 21:00 1,4 C 95 % 1017,8 hPa 0,4 l/m W 9,1 km/h (2 Bft)
23.02.2009 22:00 1,5 C 96 % 1017,9 hPa 0,0 l/m W 11,8 km/h (2 Bft)
23.02.2009 23:00 1,4 C 95 % 1018,1 hPa 0,0 l/m W 12,5 km/h (3 Bft)
24.02.2009 00:00 1,3 C 95 % 1017,9 hPa 0,0 l/m W-NW 6,3 km/h (2 Bft)
24.02.2009 01:00 1,3 C 96 % 1017,9 hPa 0,0 l/m W-NW 7,6 km/h (2 Bft)
24.02.2009 02:00 1,2 C 96 % 1018,2 hPa 0,0 l/m W 8,3 km/h (2 Bft)
24.02.2009 03:00 1,2 C 96 % 1018,4 hPa 0,0 l/m W-NW 7,0 km/h (2 Bft)
24.02.2009 04:00 1,2 C 96 % 1018,8 hPa 0,0 l/m NW 3,1 km/h (1 Bft)
24.02.2009 05:00 1,1 C 96 % 1019,3 hPa 0,0 l/m W-NW 5,7 km/h (1 Bft)
24.02.2009 06:00 1,1 C 95 % 1019,9 hPa 0,0 l/m NW 7,5 km/h (2 Bft)
24.02.2009 07:00 1,1 C 95 % 1020,5 hPa 0,0 l/m NW 6,4 km/h (2 Bft)
24.02.2009 08:00 1,3 C 94 % 1020,9 hPa 0,0 l/m NW 6,0 km/h (2 Bft)
24.02.2009 09:00 1,9 C 92 % 1021,5 hPa 0,0 l/m NW 7,5 km/h (2 Bft)
24.02.2009 10:00 2,7 C 88 % 1021,9 hPa 0,0 l/m W-NW 10,3 km/h (2 Bft)
24.02.2009 11:00 2,9 C 85 % 1022,5 hPa 0,0 l/m N-NW 10,2 km/h (2 Bft)
24.02.2009 12:00 2,9 C 83 % 1022,8 hPa 0,0 l/m N-NW 14,0 km/h (3 Bft)
24.02.2009 13:00 2,6 C 85 % 1022,8 hPa 0,0 l/m N-NO 15,8 km/h (3 Bft)
24.02.2009 14:00 2,6 C 82 % 1023,1 hPa 0,0 l/m NO 15,4 km/h (3 Bft)
24.02.2009 15:00 2,3 C 83 % 1023,4 hPa 0,0 l/m N-NO 15,0 km/h (3 Bft)
24.02.2009 16:00 2,2 C 84 % 1023,9 hPa 0,0 l/m N 12,1 km/h (2 Bft)
24.02.2009 17:00 1,8 C 86 % 1024,6 hPa 0,0 l/m N-NW 7,4 km/h (2 Bft)
24.02.2009 18:00 1,3 C 90 % 1025,2 hPa 0,0 l/m N-NW 5,1 km/h (1 Bft)
24.02.2009 19:00 0,9 C 92 % 1025,7 hPa 0,0 l/m N-NO 5,6 km/h (1 Bft)
24.02.2009 20:00 0,8 C 93 % 1026,2 hPa 0,0 l/m NO 4,8 km/h (1 Bft)
24.02.2009 21:00 0,7 C 94 % 1026,5 hPa 0,0 l/m NO 4,4 km/h (1 Bft)
24.02.2009 22:00 0,5 C 92 % 1026,9 hPa 0,0 l/m NO 5,6 km/h (1 Bft)
24.02.2009 23:00 0,3 C 93 % 1027,3 hPa 0,0 l/m NO 6,3 km/h (2 Bft)
25.02.2009 00:00 0,3 C 94 % 1027,6 hPa 0,0 l/m NO 5,6 km/h (1 Bft)
25.02.2009 01:00 0,2 C 94 % 1027,9 hPa 0,0 l/m O-NO 5,3 km/h (1 Bft)
25.02.2009 02:00 0,2 C 94 % 1028,0 hPa 0,0 l/m N-NO 5,7 km/h (1 Bft)
25.02.2009 03:00 0,1 C 93 % 1028,0 hPa 0,0 l/m NO 5,2 km/h (1 Bft)
25.02.2009 04:00 -0,3 C 93 % 1028,1 hPa 0,0 l/m NO 4,1 km/h (1 Bft)
25.02.2009 05:00 -0,7 C 94 % 1028,2 hPa 0,0 l/m O-NO 5,7 km/h (1 Bft)
25.02.2009 06:00 -0,9 C 93 % 1028,5 hPa 0,0 l/m O 8,4 km/h (2 Bft)
25.02.2009 07:00 -1,2 C 94 % 1029,1 hPa 0,0 l/m O 7,5 km/h (2 Bft)
25.02.2009 08:00 -1,3 C 93 % 1029,5 hPa 0,0 l/m O-SO 6,4 km/h (2 Bft)
25.02.2009 09:00 -0,9 C 91 % 1029,8 hPa 0,0 l/m O-NO 6,3 km/h (2 Bft)
25.02.2009 10:00 -0,7 C 90 % 1030,2 hPa 0,0 l/m N-NO 8,0 km/h (2 Bft)
25.02.2009 11:00 0,1 C 87 % 1030,3 hPa 0,0 l/m O 7,4 km/h (2 Bft)
25.02.2009 12:00 0,6 C 84 % 1030,4 hPa 0,0 l/m SO 7,5 km/h (2 Bft)
25.02.2009 13:00 1,5 C 81 % 1029,9 hPa 0,0 l/m SW 7,5 km/h (2 Bft)
25.02.2009 14:00 2,0 C 76 % 1029,3 hPa 0,0 l/m W-SW 6,3 km/h (2 Bft)
25.02.2009 15:00 2,9 C 70 % 1029,0 hPa 0,0 l/m W-SW 5,7 km/h (1 Bft)
25.02.2009 16:00 3,1 C 69 % 1029,0 hPa 0,0 l/m SW 8,0 km/h (2 Bft)
25.02.2009 17:00 2,0 C 74 % 1028,9 hPa 0,0 l/m SW 6,0 km/h (2 Bft)
25.02.2009 18:00 1,0 C 78 % 1029,1 hPa 0,0 l/m W-SW 7,4 km/h (2 Bft)
25.02.2009 19:00 -0,1 C 84 % 1029,2 hPa 0,0 l/m SW 2,8 km/h (1 Bft)
25.02.2009 20:00 -0,8 C 88 % 1028,9 hPa 0,0 l/m S 4,1 km/h (1 Bft)
25.02.2009 21:00 -0,9 C 89 % 1029,0 hPa 0,0 l/m S-SW 5,3 km/h (1 Bft)
25.02.2009 22:00 -0,5 C 90 % 1029,1 hPa 0,0 l/m SW 6,0 km/h (2 Bft)
25.02.2009 23:00 -0,8 C 90 % 1029,0 hPa 0,0 l/m S-SW 5,3 km/h (1 Bft)
26.02.2009 00:00 -1,5 C 92 % 1028,8 hPa 0,0 l/m S-SO 5,1 km/h (1 Bft)
26.02.2009 01:00 -1,8 C 93 % 1028,2 hPa 0,0 l/m S-SW 7,2 km/h (2 Bft)
26.02.2009 02:00 -2,2 C 93 % 1027,7 hPa 0,0 l/m S-SW 6,4 km/h (2 Bft)
26.02.2009 03:00 -2,3 C 95 % 1027,4 hPa 0,0 l/m SW 5,3 km/h (1 Bft)
26.02.2009 04:00 -2,2 C 94 % 1027,0 hPa 0,0 l/m S-SO 4,4 km/h (1 Bft)
26.02.2009 05:00 -2,3 C 95 % 1026,8 hPa 0,0 l/m S 5,5 km/h (1 Bft)
26.02.2009 06:00 -1,8 C 95 % 1026,2 hPa 0,0 l/m SO 7,0 km/h (2 Bft)
26.02.2009 07:00 -1,0 C 94 % 1025,9 hPa 0,0 l/m S 6,4 km/h (2 Bft)
26.02.2009 08:00 -0,4 C 93 % 1025,6 hPa 0,0 l/m S 7,4 km/h (2 Bft)
26.02.2009 09:00 0,4 C 91 % 1025,6 hPa 0,0 l/m S-SO 4,8 km/h (1 Bft)
26.02.2009 10:00 1,6 C 86 % 1025,4 hPa 0,0 l/m SW 4,9 km/h (1 Bft)
26.02.2009 11:00 2,7 C 79 % 1025,2 hPa 0,0 l/m W-SW 17,8 km/h (3 Bft)
26.02.2009 12:00 3,0 C 77 % 1024,8 hPa 0,0 l/m SW 14,1 km/h (3 Bft)
26.02.2009 13:00 3,4 C 75 % 1024,3 hPa 0,0 l/m W-SW 18,5 km/h (3 Bft)
26.02.2009 14:00 3,7 C 74 % 1024,1 hPa 0,0 l/m W-SW 13,7 km/h (3 Bft)
26.02.2009 15:00 3,7 C 76 % 1023,9 hPa 0,0 l/m SW 12,9 km/h (3 Bft)
26.02.2009 16:00 3,7 C 77 % 1023,2 hPa 0,0 l/m SW 13,6 km/h (3 Bft)
26.02.2009 17:00 3,1 C 81 % 1022,8 hPa 0,0 l/m SW 9,1 km/h (2 Bft)
26.02.2009 18:00 2,9 C 81 % 1022,7 hPa 0,0 l/m SW 13,0 km/h (3 Bft)
26.02.2009 19:00 3,1 C 80 % 1022,8 hPa 0,0 l/m SW 13,2 km/h (3 Bft)
26.02.2009 20:00 3,1 C 77 % 1022,5 hPa 0,0 l/m W-SW 15,3 km/h (3 Bft)
26.02.2009 21:00 3,1 C 80 % 1022,4 hPa 0,0 l/m W 17,6 km/h (3 Bft)
26.02.2009 22:00 2,2 C 89 % 1022,1 hPa 0,2 l/m W-SW 12,5 km/h (3 Bft)
26.02.2009 23:00 1,6 C 93 % 1021,7 hPa 0,0 l/m SW 15,3 km/h (3 Bft)
27.02.2009 00:00 1,4 C 94 % 1021,1 hPa 0,0 l/m W-SW 17,4 km/h (3 Bft)
27.02.2009 01:00 1,6 C 94 % 1021,0 hPa 0,0 l/m SW 18,0 km/h (3 Bft)
27.02.2009 02:00 1,9 C 92 % 1020,7 hPa 0,0 l/m W-SW 19,0 km/h (3 Bft)
27.02.2009 03:00 2,0 C 92 % 1020,3 hPa 0,0 l/m W-SW 20,4 km/h (4 Bft)
27.02.2009 04:00 2,2 C 91 % 1020,4 hPa 0,0 l/m W-SW 18,0 km/h (3 Bft)
27.02.2009 05:00 2,3 C 92 % 1020,6 hPa 0,0 l/m W-SW 15,3 km/h (3 Bft)
27.02.2009 06:00 2,2 C 92 % 1020,7 hPa 0,0 l/m SW 15,7 km/h (3 Bft)
27.02.2009 07:00 2,3 C 91 % 1021,4 hPa 0,0 l/m W-SW 15,2 km/h (3 Bft)
27.02.2009 08:00 2,5 C 91 % 1021,8 hPa 0,0 l/m W 17,6 km/h (3 Bft)
27.02.2009 09:00 2,9 C 90 % 1021,8 hPa 0,0 l/m W-SW 16,6 km/h (3 Bft)
27.02.2009 10:00 3,6 C 88 % 1022,0 hPa 0,0 l/m SW 18,6 km/h (3 Bft)
27.02.2009 11:00 4,3 C 85 % 1022,2 hPa 0,0 l/m SW 20,1 km/h (4 Bft)
27.02.2009 12:00 4,8 C 82 % 1021,9 hPa 0,0 l/m W-SW 22,5 km/h (4 Bft)
27.02.2009 13:00 5,4 C 79 % 1021,2 hPa 0,0 l/m SW 23,7 km/h (4 Bft)
27.02.2009 14:00 5,4 C 79 % 1021,0 hPa 0,0 l/m W-SW 17,2 km/h (3 Bft)
27.02.2009 15:00 5,9 C 76 % 1020,8 hPa 0,0 l/m SW 18,1 km/h (3 Bft)
27.02.2009 16:00 5,9 C 77 % 1020,6 hPa 0,0 l/m W-SW 12,4 km/h (3 Bft)
27.02.2009 17:00 5,6 C 78 % 1020,8 hPa 0,0 l/m SW 7,9 km/h (2 Bft)
27.02.2009 18:00 4,9 C 80 % 1021,3 hPa 0,0 l/m SW 10,2 km/h (2 Bft)
27.02.2009 19:00 4,3 C 82 % 1021,6 hPa 0,0 l/m W-SW 7,9 km/h (2 Bft)
27.02.2009 20:00 3,7 C 84 % 1021,5 hPa 0,0 l/m SW 5,7 km/h (1 Bft)
27.02.2009 21:00 3,3 C 86 % 1021,5 hPa 0,0 l/m S-SW 2,5 km/h (1 Bft)
27.02.2009 22:00 2,9 C 87 % 1021,2 hPa 0,0 l/m S-SW 3,2 km/h (1 Bft)
27.02.2009 23:00 2,5 C 87 % 1020,7 hPa 0,0 l/m N 2,1 km/h (1 Bft)
28.02.2009 00:00 1,8 C 90 % 1020,6 hPa 0,0 l/m N 1,1 km/h (0 Bft)
28.02.2009 01:00 1,1 C 90 % 1020,3 hPa 0,0 l/m N 0,3 km/h (0 Bft)
28.02.2009 02:00 0,1 C 91 % 1020,3 hPa 0,0 l/m N 0,4 km/h (0 Bft)
28.02.2009 03:00 -0,6 C 92 % 1019,7 hPa 0,0 l/m N 0,1 km/h (0 Bft)
28.02.2009 04:00 -1,0 C 93 % 1019,6 hPa 0,0 l/m N 0,1 km/h (0 Bft)
28.02.2009 05:00 -1,4 C 94 % 1019,7 hPa 0,0 l/m N 0,0 km/h (0 Bft)
28.02.2009 06:00 -1,7 C 95 % 1019,5 hPa 0,0 l/m N 0,5 km/h (0 Bft)
28.02.2009 07:00 -1,9 C 95 % 1019,2 hPa 0,0 l/m N 0,8 km/h (0 Bft)
28.02.2009 08:00 -1,1 C 97 % 1019,0 hPa 0,0 l/m N 0,5 km/h (0 Bft)
28.02.2009 09:00 1,4 C 98 % 1018,7 hPa 0,0 l/m N-NO 4,3 km/h (1 Bft)
28.02.2009 10:00 5,1 C 83 % 1018,3 hPa 0,0 l/m NO 8,0 km/h (2 Bft)
28.02.2009 11:00 7,7 C 73 % 1017,3 hPa 0,0 l/m O-SO 9,2 km/h (2 Bft)
28.02.2009 12:00 9,4 C 64 % 1016,3 hPa 0,0 l/m O-NO 6,7 km/h (2 Bft)
28.02.2009 13:00 10,8 C 59 % 1015,1 hPa 0,0 l/m NO 11,7 km/h (2 Bft)
28.02.2009 14:00 11,2 C 56 % 1014,5 hPa 0,0 l/m O-NO 10,1 km/h (2 Bft)
28.02.2009 15:00 11,3 C 54 % 1014,0 hPa 0,0 l/m O-NO 9,8 km/h (2 Bft)
28.02.2009 16:00 10,9 C 57 % 1014,0 hPa 0,0 l/m O-SO 8,8 km/h (2 Bft)
28.02.2009 17:00 8,5 C 66 % 1013,9 hPa 0,0 l/m O-SO 2,0 km/h (1 Bft)
28.02.2009 18:00 6,3 C 73 % 1013,9 hPa 0,0 l/m N 1,2 km/h (1 Bft)
28.02.2009 19:00 4,4 C 79 % 1014,0 hPa 0,0 l/m NO 1,1 km/h (0 Bft)
28.02.2009 20:00 3,4 C 83 % 1013,5 hPa 0,0 l/m N-NO 1,6 km/h (1 Bft)
28.02.2009 21:00 2,4 C 86 % 1013,5 hPa 0,0 l/m N 1,1 km/h (0 Bft)
28.02.2009 22:00 1,6 C 88 % 1013,0 hPa 0,0 l/m N 0,3 km/h (0 Bft)
28.02.2009 23:00 0,8 C 90 % 1012,6 hPa 0,0 l/m N 0,8 km/h (0 Bft)
01.03.2009 00:00 0,6 C 93 % 1012,5 hPa 0,0 l/m N-NW 3,2 km/h (1 Bft)
01.03.2009 01:00 0,2 C 92 % 1012,5 hPa 0,0 l/m N 0,0 km/h (0 Bft)
01.03.2009 02:00 -0,5 C 92 % 1012,2 hPa 0,0 l/m N 0,1 km/h (0 Bft)
01.03.2009 03:00 -1,0 C 93 % 1012,2 hPa 0,0 l/m N 0,1 km/h (0 Bft)
01.03.2009 04:00 -1,5 C 93 % 1012,1 hPa 0,0 l/m N 0,0 km/h (0 Bft)
01.03.2009 05:00 -1,9 C 94 % 1012,1 hPa 0,0 l/m N 0,5 km/h (0 Bft)
01.03.2009 06:00 -2,3 C 94 % 1012,3 hPa 0,0 l/m N 0,1 km/h (0 Bft)
01.03.2009 07:00 -2,6 C 94 % 1012,6 hPa 0,0 l/m N 0,0 km/h (0 Bft)
01.03.2009 08:00 -2,3 C 96 % 1012,8 hPa 0,0 l/m N 0,8 km/h (0 Bft)
01.03.2009 09:00 -0,9 C 98 % 1012,9 hPa 0,0 l/m S-SW 3,2 km/h (1 Bft)
01.03.2009 10:00 2,4 C 97 % 1012,9 hPa 0,0 l/m S 8,7 km/h (2 Bft)
01.03.2009 11:00 5,6 C 85 % 1012,8 hPa 0,0 l/m S-SW 13,3 km/h (3 Bft)
01.03.2009 12:00 9,3 C 72 % 1012,5 hPa 0,0 l/m S-SW 12,6 km/h (3 Bft)
01.03.2009 13:00 10,3 C 66 % 1011,8 hPa 0,0 l/m S-SW 16,1 km/h (3 Bft)
01.03.2009 14:00 10,9 C 58 % 1011,4 hPa 0,0 l/m W-SW 17,2 km/h (3 Bft)
01.03.2009 15:00 10,3 C 62 % 1011,4 hPa 0,0 l/m S-SW 11,7 km/h (2 Bft)
01.03.2009 16:00 9,3 C 67 % 1011,2 hPa 0,0 l/m SO 6,6 km/h (2 Bft)
01.03.2009 17:00 8,0 C 72 % 1011,4 hPa 0,0 l/m SW 5,1 km/h (1 Bft)
01.03.2009 18:00 7,1 C 74 % 1011,9 hPa 0,0 l/m SW 3,1 km/h (1 Bft)
01.03.2009 19:00 6,1 C 77 % 1012,3 hPa 0,0 l/m N 1,1 km/h (0 Bft)
01.03.2009 20:00 5,4 C 81 % 1012,4 hPa 0,0 l/m N 1,3 km/h (1 Bft)
01.03.2009 21:00 5,1 C 84 % 1012,7 hPa 0,0 l/m S-SW 1,6 km/h (1 Bft)
01.03.2009 22:00 4,8 C 85 % 1012,8 hPa 0,0 l/m N 0,0 km/h (0 Bft)
01.03.2009 23:00 4,3 C 86 % 1012,8 hPa 0,0 l/m N 0,0 km/h (0 Bft)
Min-Datum _ 01.03.09 28.02.09 01.03.09 - - 24.02.09
_ Min-Zeit 07:35 15:00 16:15 - - 04:15
Minimum _ -2,7 C 53 % 1011,1 hPa - - 0,0 km/h (0 Bft)
Max-Datum _ 28.02.09 25.02.09 25.02.09 23.02.09 - 27.02.09
_ Max-Zeit 15:45 05:10 11:45 18:25 - 13:25
Maximum _ 11,5 C 100 % 1030,5 hPa 0,4 l/m - 29,0 km/h
W-SW (5 Bft)
Durchschnitt _ 2,2 C 87 % 1020,7 hPa #1,4 l/m W-SW 8,8 km/h (2 Bft)